Home > Weather > Kirkenes > Past weeks

Flag for Norway Weather for the Past 2 Weeks in Kirkenes, Norway

Now
31 °F

Chilly.


Feels Like: 31 °F
Forecast: 24 / 32 °F
Wind: 1 mph from Southeast

Location: Kirkenes Lufthavn

Current Time: Feb 10, 2016 at 9:17:43 PM

Latest Report: Feb 10, 2016 at 8:00 PM


Visibility: N/A

Pressure: 29.32 "Hg

Humidity: 99%

Dew point: 31 °F

Location of KirkenesLocation

Historic Weather in Kirkenes — Graph

°F

Kirkenes Temperature Yesterday

Maximum temperature yesterday: 36 °F (at 1:00 AM)
Minimum temperature yesterday: 32 °F (at 8:00 PM)
Average temperature yesterday: 33 °F

High & Low Weather Summary for the Past Weeks

 TemperatureHumidityPressure
High36 °F (Feb 8, 5:00 PM)100% (Feb 10, 3:00 AM)29.73 "Hg (Feb 10, 3:00 AM)
Low-1 °F (Jan 29, 9:00 PM)78% (Jan 28, 2:00 PM)28.64 "Hg (Jan 31, 7:00 AM)
Average19 °F91%29.10 "Hg
* Reported Jan 26 8:00 PM — Feb 10 8:00 PM, Kirkenes, Weather by CustomWeather, © 2016

Note: Actual official high and low records may vary slightly from our data, if they occured in-between our weather recording intervals... More about our weather records

Advertising

Kirkenes Weather History for the Previous 24 Hours

 ConditionsComfort  
Time TempWeatherWind HumidityBarometerVisibility
8:00 PM
Wed, Feb 10
31 °FChilly.1 mph99%29.32 "HgN/A
7:00 PM31 °FChilly.2 mph98%29.29 "HgN/A
6:00 PM31 °FChilly.2 mph98%29.29 "HgN/A
5:00 PM31 °FChilly.2 mph98%29.26 "HgN/A
4:00 PM31 °FChilly.1 mph98%29.23 "HgN/A
3:00 PM31 °FChilly.No wind98%29.23 "HgN/A
2:00 PM31 °FChilly.No wind98%29.21 "HgN/A
1:00 PM31 °FChilly.No wind97%29.18 "HgN/A
12:00 PM32 °FChilly.No wind97%29.15 "HgN/A
11:00 AM32 °FChilly.2 mph97%29.12 "HgN/A
10:00 AM32 °FChilly.3 mph99%29.09 "HgN/A
9:00 AM31 °FChilly.3 mph98%29.09 "HgN/A
8:00 AM31 °FChilly.1 mph98%29.06 "HgN/A
7:00 AM31 °FChilly.2 mph99%29.03 "HgN/A
4:00 AM32 °FChilly.1 mph100%29.00 "HgN/A
3:00 AM32 °FChilly.2 mph100%29.00 "HgN/A
1:00 AM32 °FChilly.3 mph99%29.00 "HgN/A
12:00 AM32 °FChilly.5 mph99%29.00 "HgN/A
11:00 PM
Tue, Feb 9
32 °FChilly.5 mph98%29.03 "HgN/A
10:00 PM32 °FChilly.5 mph99%29.03 "HgN/A
9:00 PM32 °FChilly.6 mph99%29.03 "HgN/A
Weather by CustomWeather, © 2016

See weather overviewHow to use our weather pages